Natchitoches, LA

9:49 AM CDT on August 20, 2017 (GMT -0500)
Natchitoches Regional

Weather History for KIER - January, 2014

Change the Weather History Date:

Friday, January 31, 2014

  Actual Average Record
Temperature  
Mean Temperature 55 °F -  
Max Temperature 67 °F 61 °F 87 °F (2002)
Min Temperature 43 °F 37 °F 3 °F (1949)
Degree Days  
Heating Degree Days 10    
Growing Degree Days 5 (Base 50)    
Moisture  
Dew Point 48 °F    
Average Humidity 78    
Maximum Humidity 92    
Minimum Humidity 59    
Precipitation  
Precipitation 0.00 in - - ()
Sea Level Pressure  
Sea Level Pressure 30.00 in    
Wind  
Wind Speed 8 mph (SSE)    
Max Wind Speed 17 mph    
Max Gust Speed 20 mph    
Visibility 10 miles    
Events      
Averages and records for this station are not official NWS values.
T = Trace of Precipitation, MM = Missing Value Source: NWS Daily Summary

Daily Weather History Graph

Daily Weather History Graph

Search for Another Location

Airport or City:

Trip Planner

Search our weather history database for the weather conditions in past years. The results will help you decide how hot, cold, wet, or windy it might be!

Date:

Astronomy

Jan. 31, 2014 Rise Set
Actual Time 7:06 AM CST 5:45 PM CST
Civil Twilight 6:40 AM CST 6:11 PM CST
Nautical Twilight 6:11 AM CST 6:40 PM CST
Astronomical Twilight 5:42 AM CST 7:09 PM CST
Moon 7:22 AM CST (1/31) 7:02 PM CST (1/31)
Length of Visible Light 11h 31m
Length of Day
10h 39m
New Moon, 1% of the Moon is Illuminated
Jan 31
New Moon
Feb 6
First Quarter
Feb 14
Full
Feb 22
Last Quarter
Mar 1
New

Hourly Weather History & Observations

Time (CST) Temp. Windchill Dew Point Humidity Pressure Visibility Wind Dir Wind Speed Gust Speed Precip Events Conditions
12:15 AM 46.4 °F 43.5 °F 40.6 °F 80% 30.03 in 10.0 mi SSE 5.8 mph - N/A   Overcast
12:35 AM 46.0 °F 42.5 °F 41.0 °F 83% 30.03 in 10.0 mi SE 6.9 mph - N/A   Overcast
12:55 AM 46.0 °F 41.9 °F 41.4 °F 84% 30.03 in 10.0 mi SE 8.1 mph - N/A   Overcast
1:15 AM 45.5 °F 41.3 °F 41.0 °F 84% 30.03 in 10.0 mi SE 8.1 mph - N/A   Overcast
1:35 AM 45.5 °F 41.3 °F 41.2 °F 85% 30.03 in 10.0 mi SE 8.1 mph - N/A   Overcast
1:55 AM 45.5 °F 41.8 °F 41.4 °F 85% 30.03 in 10.0 mi SE 6.9 mph - N/A   Overcast
2:15 AM 45.3 °F 41.1 °F 41.5 °F 87% 30.03 in 10.0 mi SE 8.1 mph - N/A   Overcast
2:35 AM 45.5 °F 41.3 °F 41.9 °F 87% 30.03 in 10.0 mi SE 8.1 mph - N/A   Overcast
2:55 AM 45.0 °F 41.8 °F 41.5 °F 88% 30.03 in 10.0 mi SE 5.8 mph - N/A   Overcast
3:15 AM 45.0 °F 41.2 °F 41.9 °F 89% 30.03 in 10.0 mi SE 6.9 mph - N/A   Overcast
3:35 AM 45.0 °F 41.2 °F 41.9 °F 89% 30.02 in 10.0 mi SE 6.9 mph - N/A   Overcast
3:55 AM 45.1 °F 40.8 °F 41.9 °F 88% 30.02 in 10.0 mi SE 8.1 mph - N/A   Overcast
4:15 AM 45.1 °F 42.0 °F 42.1 °F 89% 30.01 in 10.0 mi SE 5.8 mph - N/A   Overcast
4:35 AM 45.5 °F 41.8 °F 42.6 °F 90% 30.01 in 10.0 mi SSE 6.9 mph - N/A   Overcast
4:55 AM 45.7 °F 41.5 °F 42.8 °F 90% 30.01 in 10.0 mi SSE 8.1 mph - N/A   Overcast
5:15 AM 45.9 °F 42.3 °F 43.0 °F 90% 30.01 in 10.0 mi SSE 6.9 mph - N/A   Overcast
5:35 AM 45.9 °F 41.7 °F 43.0 °F 90% 30.01 in 10.0 mi SSE 8.1 mph - N/A   Overcast
5:55 AM 45.9 °F 41.7 °F 43.0 °F 90% 30.01 in 10.0 mi SE 8.1 mph - N/A   Overcast
6:15 AM 45.0 °F 40.6 °F 42.3 °F 90% 30.01 in 10.0 mi SE 8.1 mph - N/A   Overcast
6:35 AM 44.6 °F 40.7 °F 42.1 °F 91% 30.02 in 10.0 mi SE 6.9 mph - N/A   Overcast
6:55 AM 44.2 °F 39.2 °F 41.9 °F 91% 30.03 in 10.0 mi SE 9.2 mph - N/A   Overcast
7:15 AM 44.2 °F 40.3 °F 41.9 °F 91% 30.02 in 10.0 mi SE 6.9 mph - N/A   Overcast
7:35 AM 43.3 °F 38.6 °F 41.2 °F 92% 30.02 in 10.0 mi SE 8.1 mph - N/A   Scattered Clouds
7:55 AM 44.1 °F 39.0 °F 41.5 °F 91% 30.03 in 10.0 mi SE 9.2 mph - N/A   Clear
8:15 AM 45.3 °F 40.1 °F 41.9 °F 88% 30.03 in 10.0 mi SE 10.4 mph - N/A   Scattered Clouds
8:35 AM 46.0 °F 41.4 °F 42.4 °F 87% 30.04 in 10.0 mi SSE 9.2 mph - N/A   Mostly Cloudy
8:55 AM 46.6 °F - 42.8 °F 87% 30.05 in 10.0 mi SE 8.1 mph - N/A   Overcast
9:15 AM 48.2 °F - 43.5 °F 84% 30.05 in 10.0 mi SE 9.2 mph - N/A   Overcast
9:35 AM 48.9 °F - 43.9 °F 83% 30.06 in 10.0 mi SE 8.1 mph - N/A   Overcast
9:55 AM 50.5 °F - 44.8 °F 81% 30.06 in 10.0 mi SE 10.4 mph - N/A   Overcast
10:15 AM 54.3 °F - 46.2 °F 74% 30.06 in 10.0 mi SSE 6.9 mph - N/A   Mostly Cloudy
10:35 AM 55.8 °F - 46.6 °F 71% 30.06 in 10.0 mi SSE 8.1 mph - N/A   Overcast
10:55 AM 58.5 °F - 48.2 °F 69% 30.05 in 10.0 mi SSE 8.1 mph - N/A   Overcast
11:15 AM 61.0 °F - 49.5 °F 66% 30.04 in 10.0 mi SSE 15.0 mph - N/A   Overcast
11:35 AM 62.4 °F - 50.0 °F 64% 30.03 in 10.0 mi South 11.5 mph - N/A   Overcast
11:55 AM 63.5 °F - 50.4 °F 62% 30.02 in 10.0 mi South 12.7 mph - N/A   Overcast
12:15 PM 65.5 °F - 51.4 °F 60% 30.01 in 10.0 mi SSE 11.5 mph - N/A   Overcast
12:35 PM 65.8 °F - 51.6 °F 60% 30.00 in 10.0 mi South 10.4 mph 17.3 mph N/A   Overcast
12:55 PM 66.7 °F - 52.2 °F 59% 29.98 in 10.0 mi South 12.7 mph - N/A   Overcast
1:15 PM 67.3 °F - 52.7 °F 59% 29.98 in 10.0 mi South 5.8 mph 9.2 mph N/A   Overcast
1:35 PM 67.3 °F - 52.7 °F 59% 29.97 in 10.0 mi South 6.9 mph - N/A   Overcast
1:55 PM 66.7 °F - 52.9 °F 61% 29.96 in 10.0 mi South 8.1 mph - N/A   Overcast
2:15 PM 67.1 °F - 53.4 °F 61% 29.96 in 10.0 mi South 9.2 mph - N/A   Overcast
2:35 PM 67.5 °F - 53.4 °F 61% 29.96 in 10.0 mi South 10.4 mph - N/A   Overcast
2:55 PM 67.1 °F - 53.1 °F 61% 29.96 in 10.0 mi South 10.4 mph - N/A   Overcast
3:15 PM 66.6 °F - 53.2 °F 62% 29.96 in 10.0 mi South 11.5 mph - N/A   Overcast
3:35 PM 66.7 °F - 53.6 °F 63% 29.96 in 10.0 mi South 17.3 mph - N/A   Overcast
3:55 PM 67.1 °F - 53.4 °F 61% 29.96 in 10.0 mi South 12.7 mph - N/A   Overcast
4:15 PM 66.7 °F - 53.4 °F 62% 29.96 in 10.0 mi South 13.8 mph 19.6 mph N/A   Overcast
4:35 PM 66.4 °F - 53.6 °F 63% 29.96 in 10.0 mi South 11.5 mph - N/A   Overcast
4:55 PM 66.0 °F - 53.6 °F 64% 29.95 in 10.0 mi South 11.5 mph - N/A   Overcast
5:15 PM 64.9 °F - 53.6 °F 67% 29.94 in 10.0 mi SSE 11.5 mph - N/A   Overcast
5:35 PM 63.7 °F - 53.2 °F 69% 29.94 in 10.0 mi SSE 9.2 mph - N/A   Mostly Cloudy
5:55 PM 61.9 °F - 53.1 °F 73% 29.94 in 10.0 mi South 8.1 mph - N/A   Overcast
6:15 PM 61.9 °F - 52.9 °F 72% 29.94 in 10.0 mi South 6.9 mph - N/A   Overcast
6:35 PM 61.5 °F - 52.9 °F 73% 29.95 in 10.0 mi SSE 8.1 mph - N/A   Overcast
6:55 PM 61.0 °F - 52.7 °F 74% 29.95 in 10.0 mi SSE 6.9 mph - N/A   Overcast
7:15 PM 58.5 °F - 51.8 °F 79% 29.95 in 10.0 mi SSE 9.2 mph - N/A   Scattered Clouds
7:35 PM 58.6 °F - 51.8 °F 78% 29.96 in 10.0 mi South 10.4 mph - N/A   Scattered Clouds
7:55 PM 57.7 °F - 51.3 °F 79% 29.96 in 10.0 mi SSE 9.2 mph - N/A   Mostly Cloudy
8:15 PM 57.7 °F - 51.3 °F 79% 29.96 in 10.0 mi South 10.4 mph - N/A   Scattered Clouds
8:35 PM 58.1 °F - 51.1 °F 77% 29.96 in 10.0 mi SSE 10.4 mph - N/A   Clear
8:55 PM 57.0 °F - 50.9 °F 80% 29.96 in 10.0 mi South 10.4 mph - N/A   Clear
9:15 PM 57.2 °F - 50.9 °F 79% 29.96 in 10.0 mi South 10.4 mph - N/A   Clear
9:35 PM 57.4 °F - 50.9 °F 79% 29.96 in 10.0 mi South 9.2 mph - N/A   Clear
9:55 PM 57.0 °F - 50.7 °F 79% 29.96 in 10.0 mi South 8.1 mph - N/A   Clear
10:15 PM 55.9 °F - 50.5 °F 82% 29.96 in 10.0 mi South 9.2 mph - N/A   Clear
10:35 PM 55.4 °F - 50.4 °F 83% 29.96 in 10.0 mi SSE 10.4 mph - N/A   Clear
10:55 PM 55.4 °F - 50.4 °F 83% 29.96 in 10.0 mi South 11.5 mph 16.1 mph N/A   Clear
11:15 PM 55.0 °F - 50.4 °F 84% 29.96 in 10.0 mi South 10.4 mph - N/A   Clear
11:35 PM 54.5 °F - 50.2 °F 85% 29.96 in 10.0 mi South 8.1 mph - N/A   Clear
11:55 PM 53.6 °F - 49.6 °F 86% 29.96 in 10.0 mi South 6.9 mph - N/A   Clear